sat.trackr.live / text

‹ back to catalog

STARLINK-32616

NORAD 61920 · 2024-207J

PAYLOAD ACTIVE UNKNOWN

§ Identity

Operator
Country
US
Launch date
2024-11-11
Launch site
AFETR
Launch vehicle
Mass (kg)
RCS (m²)

Purposes: comms

External: N2YO · Heavens-Above · Gunter

§ Orbital elements

Epoch: 2026-05-25T04:56:50.508096Z

Period
94.27 min
Inclination
42.9986°
Eccentricity
0.0001155
Mean motion
15.27585468 rev/d
Perigee alt
482.2 km
Apogee alt
483.8 km
Semi-major
6,861.2 km
B*
4.9674e-4
RAAN
209.6704°
Arg perigee
271.5486°
Mean anomaly
88.5234°
Rev number
8,642

§ Raw data

STARLINK-326161 61920U 24207J   26145.20614014  .00013434  00000+0  49674-3 0  99962 61920  42.9986 209.6704 0001155 271.5486  88.5234 15.27585468 86422

JSON: /api/v1/satellites/61920 · /tle

For live sub-satellite position, see the globe view (requires WebGL).

§ Visibility from observer

Set your observer location to see the next 7 days of passes ≥ 10°. The values pass through the URL so the page stays shareable.

No JS? Fill the form by hand. The geolocation button needs JavaScript.